Flag for Canada Weather past 2 weeks in Rothesay, New Brunswick, Canada

Now
59 °F

Sprinkles. Fog.


Feels Like: 58 °F
Forecast: 57 / 65 °F
Wind: 6 mph from South

Location: Saint John

Current Time: Jul 24, 2014 at 8:13:33 AM

Latest Report: Jul 24, 2014 at 7:00 AM


Visibility: 0 mi

Pressure: 29.78 "Hg

Humidity: 100%

Dew point: 59 °F

Location of RothesayLocation

Historic Weather in Rothesay — Graph

°F

Rothesay temperature yesterday

Maximum temperature yesterday: 68 °F (at 1:47 PM)
Minimum temperature yesterday: 59 °F (at 12:00 AM)
Average temperature yesterday: 62 °F

Past Weeks' High & Low Weather Summary

 TemperatureHumidityPressure
High81 °F (Jul 19, 3:00 PM)100% (Jul 9, 6:00 AM)30.27 "Hg (Jul 9, 6:00 AM)
Low45 °F (Jul 12, 5:00 AM)34% (Jul 12, 12:00 PM)29.75 "Hg (Jul 24, 5:00 AM)
Average63 °F85%30.03 "Hg
* Reported Jul 9 6:00 AM — Jul 24 6:00 AM, Rothesay, Weather by CustomWeather, © 2014

Note: Actual official high and low records may vary slightly from our data, if they occured in-between our weather recording intervals... More about our weather records

Advertising

Rothesay weather history for previous 24 hours

 ConditionsComfort  
Time TempWeatherWind HumidityBarometerVisibility
6:00 AM
Jul 24
59 °FFog.2 mph100%29.75 "Hg2 mi
5:00 AM59 °FFog.3 mph100%29.75 "Hg1 mi
4:00 AM59 °FFog.No wind100%29.76 "Hg1 mi
3:00 AM59 °FFog.8 mph100%29.77 "Hg1 mi
2:00 AM59 °FFog.8 mph100%29.76 "Hg1 mi
1:00 AM59 °FFog.8 mph100%29.78 "Hg1 mi
12:00 AM61 °FFog.10 mph100%29.77 "Hg1 mi
11:00 PM
Jul 23
61 °FFog.10 mph100%29.78 "Hg1 mi
10:00 PM61 °FFog.13 mph100%29.77 "Hg2 mi
9:00 PM61 °FFog.14 mph100%29.78 "Hg1 mi
8:00 PM61 °FFog.13 mph100%29.76 "Hg0 mi
7:00 PM63 °FFog.12 mph94%29.77 "Hg1 mi
6:46 PM63 °FFog.15 mph94%29.77 "Hg1 mi
6:00 PM64 °FFog.14 mph88%29.77 "Hg3 mi
5:00 PM66 °FPartly sunny.15 mph83%29.78 "Hg8 mi
4:00 PM68 °FPassing clouds.17 mph83%29.78 "Hg10 mi
3:00 PM68 °FScattered clouds.20 mph78%29.79 "Hg10 mi
2:00 PM68 °FScattered clouds.16 mph78%29.80 "Hg10 mi
1:47 PM68 °FScattered clouds.17 mph78%29.81 "Hg8 mi
1:00 PM64 °FFog.14 mph88%29.83 "Hg2 mi
12:00 PM63 °FFog.16 mph100%29.84 "Hg1 mi
11:00 AM63 °FFog.17 mph100%29.85 "Hg0 mi
10:00 AM61 °FFog.9 mph100%29.88 "Hg0 mi
9:00 AM61 °FFog.12 mph100%29.89 "Hg0 mi
8:00 AM59 °FFog.10 mph100%29.90 "Hg0 mi
Weather by CustomWeather, © 2014

See weather overviewHow to use our weather pages